Hourly Weather Tibissa

Today, 4 August, Tuesday

Time Temperature Precipitation Wind Pressure Humidity
00:00 +26°C° 0 mm 2 mps 684 mmHg 50%
01:00 +27°C° 0 mm 1 mps 684 mmHg 48%
02:00 +27°C° 0 mm 1 mps 684 mmHg 48%
03:00 +26°C° 0 mm 1 mps 684 mmHg 49%
04:00 +26°C° 0 mm 1 mps 683 mmHg 49%
05:00 +26°C° 0 mm 1 mps 684 mmHg 51%
06:00 +26°C° 0 mm 2 mps 684 mmHg 52%
07:00 +26°C° 0 mm 2 mps 684 mmHg 54%
08:00 +27°C° 0 mm 2 mps 684 mmHg 50%
09:00 +28°C° 0 mm 2 mps 685 mmHg 47%
10:00 +29°C° 0 mm 2 mps 685 mmHg 43%
11:00 +31°C° 0 mm 3 mps 685 mmHg 38%
12:00 +33°C° 0 mm 4 mps 685 mmHg 33%
13:00 +34°C° 0 mm 6 mps 685 mmHg 28%
14:00 +34°C° 0 mm 6 mps 685 mmHg 29%
15:00 +34°C° 0 mm 7 mps 685 mmHg 29%
16:00 +34°C° 0 mm 7 mps 684 mmHg 30%
17:00 +32°C° 0 mm 7 mps 684 mmHg 37%
18:00 +29°C° 0 mm 7 mps 684 mmHg 44%
19:00 +28°C° 0 mm 7 mps 684 mmHg 51%
20:00 +26°C° 0 mm 6 mps 684 mmHg 56%
21:00 +23°C° 0 mm 5 mps 685 mmHg 61%
22:00 +22°C° 0 mm 5 mps 685 mmHg 66%
23:00 +21°C° 0 mm 4 mps 685 mmHg 68%

Tomorrow, 5 August, Wednesday

Time Temperature Precipitation Wind Pressure Humidity
00:00 +21°C° 0 mm 3 mps 685 mmHg 70%
01:00 +20°C° 0 mm 3 mps 684 mmHg 72%
02:00 +20°C° 0 mm 2 mps 684 mmHg 73%
03:00 +19°C° 0 mm 2 mps 684 mmHg 74%
04:00 +20°C° 0 mm 1 mps 684 mmHg 75%
05:00 +20°C° 0 mm 1 mps 684 mmHg 73%
06:00 +21°C° 0 mm 1 mps 684 mmHg 71%
07:00 +21°C° 0 mm 1 mps 684 mmHg 69%
08:00 +23°C° 0 mm 2 mps 684 mmHg 59%
09:00 +25°C° 0 mm 2 mps 685 mmHg 49%
10:00 +27°C° 0 mm 2 mps 685 mmHg 39%
11:00 +28°C° 0 mm 2 mps 685 mmHg 36%
12:00 +29°C° 0 mm 3 mps 686 mmHg 32%
13:00 +31°C° 0 mm 3 mps 686 mmHg 29%
14:00 +33°C° 0 mm 3 mps 685 mmHg 27%
15:00 +33°C° 0 mm 3 mps 685 mmHg 25%
16:00 +34°C° 0 mm 4 mps 685 mmHg 23%
17:00 +33°C° 0 mm 5 mps 685 mmHg 24%
18:00 +32°C° 0 mm 6 mps 685 mmHg 26%
19:00 +29°C° 0 mm 6 mps 685 mmHg 27%
20:00 +28°C° 0 mm 5 mps 685 mmHg 30%
21:00 +26°C° 0 mm 4 mps 685 mmHg 33%
22:00 +25°C° 0 mm 3 mps 685 mmHg 37%
23:00 +24°C° 0 mm 2 mps 685 mmHg 40%

Day after tomorrow, 6 August, Thursday

Time Temperature Precipitation Wind Pressure Humidity
00:00 +24°C° 0 mm 2 mps 685 mmHg 43%
01:00 +23°C° 0 mm 1 mps 685 mmHg 45%
02:00 +22°C° 0 mm 1 mps 685 mmHg 47%
03:00 +22°C° 0 mm 1 mps 685 mmHg 48%
04:00 +21°C° 0 mm 1 mps 685 mmHg 49%
05:00 +22°C° 0 mm 1 mps 685 mmHg 48%
06:00 +22°C° 0 mm 1 mps 685 mmHg 46%
07:00 +22°C° 0 mm 1 mps 685 mmHg 45%
08:00 +24°C° 0 mm 2 mps 686 mmHg 39%
09:00 +26°C° 0 mm 2 mps 686 mmHg 33%
10:00 +27°C° 0 mm 3 mps 687 mmHg 28%
11:00 +29°C° 0 mm 3 mps 687 mmHg 24%
12:00 +30°C° 0 mm 4 mps 687 mmHg 21%
13:00 +32°C° 0 mm 4 mps 687 mmHg 17%
14:00 +33°C° 0 mm 4 mps 687 mmHg 16%
15:00 +33°C° 0 mm 5 mps 687 mmHg 15%
16:00 +34°C° 0 mm 5 mps 686 mmHg 14%
17:00 +33°C° 0 mm 5 mps 686 mmHg 16%
18:00 +32°C° 0 mm 5 mps 686 mmHg 19%
19:00 +30°C° 0 mm 6 mps 686 mmHg 21%
20:00 +28°C° 0 mm 5 mps 687 mmHg 30%
21:00 +27°C° 0 mm 4 mps 687 mmHg 38%
22:00 +25°C° 0 mm 3 mps 687 mmHg 47%
23:00 +24°C° 0 mm 2 mps 687 mmHg 52%

7 August, Friday

Time Temperature Precipitation Wind Pressure Humidity
00:00 +23°C° 0 mm 2 mps 687 mmHg 56%
01:00 +23°C° 0 mm 1 mps 687 mmHg 61%
02:00 +22°C° 0 mm 1 mps 687 mmHg 63%
03:00 +21°C° 0 mm 1 mps 686 mmHg 66%
04:00 +21°C° 0 mm 1 mps 686 mmHg 68%
05:00 +21°C° 0 mm 1 mps 686 mmHg 66%
06:00 +21°C° 0 mm 1 mps 687 mmHg 65%
07:00 +21°C° 0 mm 1 mps 687 mmHg 63%
08:00 +23°C° 0 mm 2 mps 687 mmHg 51%
09:00 +25°C° 0 mm 2 mps 688 mmHg 39%
10:00 +27°C° 0 mm 3 mps 689 mmHg 27%
11:00 +28°C° 0 mm 3 mps 689 mmHg 24%
12:00 +30°C° 0 mm 4 mps 689 mmHg 22%
13:00 +32°C° 0 mm 4 mps 688 mmHg 19%
14:00 +33°C° 0 mm 4 mps 688 mmHg 19%
15:00 +33°C° 0 mm 4 mps 688 mmHg 20%
16:00 +33°C° 0 mm 4 mps 688 mmHg 20%
17:00 +32°C° 0 mm 5 mps 688 mmHg 24%
18:00 +30°C° 0 mm 6 mps 688 mmHg 29%
19:00 +29°C° 0 mm 7 mps 688 mmHg 34%
20:00 +28°C° 0 mm 6 mps 688 mmHg 39%
21:00 +26°C° 0 mm 4 mps 688 mmHg 45%
22:00 +25°C° 0 mm 3 mps 688 mmHg 50%
23:00 +24°C° 0 mm 2 mps 688 mmHg 52%

8 August, Saturday

Time Temperature Precipitation Wind Pressure Humidity
00:00 +24°C° 0 mm 2 mps 688 mmHg 54%
01:00 +23°C° 0 mm 1 mps 688 mmHg 56%
02:00 +22°C° 0 mm 1 mps 687 mmHg 58%
03:00 +22°C° 0 mm 1 mps 687 mmHg 59%
04:00 +21°C° 0 mm 1 mps 687 mmHg 61%
05:00 +22°C° 0 mm 1 mps 687 mmHg 59%
06:00 +21°C° 0 mm 2 mps 687 mmHg 57%
07:00 +23°C° 0 mm 2 mps 687 mmHg 55%
08:00 +24°C° 0 mm 2 mps 688 mmHg 48%
09:00 +26°C° 0 mm 3 mps 688 mmHg 40%
10:00 +28°C° 0 mm 4 mps 689 mmHg 33%
11:00 +29°C° 0 mm 4 mps 689 mmHg 30%
12:00 +32°C° 0 mm 4 mps 688 mmHg 27%
13:00 +33°C° 0 mm 4 mps 688 mmHg 24%
14:00 +33°C° 0 mm 5 mps 688 mmHg 22%
15:00 +34°C° 0 mm 5 mps 687 mmHg 21%
16:00 +34°C° 0 mm 5 mps 687 mmHg 20%
17:00 +33°C° 0 mm 6 mps 687 mmHg 22%
18:00 +32°C° 0 mm 6 mps 687 mmHg 24%
19:00 +32°C° 0 mm 7 mps 687 mmHg 27%
20:00 +29°C° 0 mm 5 mps 687 mmHg 32%
21:00 +27°C° 0 mm 4 mps 687 mmHg 37%
22:00 +26°C° 0 mm 2 mps 687 mmHg 42%
23:00 +25°C° 0 mm 2 mps 687 mmHg 45%

9 August, Sunday

Time Temperature Precipitation Wind Pressure Humidity
00:00 +24°C° 0 mm 1 mps 686 mmHg 48%
01:00 +24°C° 0 mm 1 mps 686 mmHg 51%
02:00 +23°C° 0 mm 1 mps 686 mmHg 53%
03:00 +22°C° 0 mm 1 mps 685 mmHg 55%
04:00 +22°C° 0 mm 1 mps 685 mmHg 57%
05:00 +22°C° 0 mm 1 mps 685 mmHg 55%
06:00 +23°C° 0 mm 1 mps 686 mmHg 52%
07:00 +24°C° 0 mm 1 mps 686 mmHg 50%
08:00 +26°C° 0 mm 2 mps 686 mmHg 43%
09:00 +27°C° 0 mm 3 mps 687 mmHg 36%
10:00 +29°C° 0 mm 3 mps 687 mmHg 29%
11:00 +30°C° 0 mm 3 mps 687 mmHg 26%
12:00 +33°C° 0 mm 4 mps 687 mmHg 22%
13:00 +34°C° 0 mm 4 mps 687 mmHg 19%
14:00 +34°C° 0 mm 5 mps 686 mmHg 18%
15:00 +35°C° 0 mm 5 mps 686 mmHg 17%
16:00 +35°C° 0 mm 5 mps 685 mmHg 16%
17:00 +35°C° 0 mm 6 mps 685 mmHg 18%
18:00 +34°C° 0 mm 6 mps 685 mmHg 20%
19:00 +33°C° 0 mm 6 mps 685 mmHg 22%
20:00 +30°C° 0 mm 5 mps 685 mmHg 26%
21:00 +29°C° 0 mm 4 mps 685 mmHg 31%
22:00 +27°C° 0 mm 3 mps 685 mmHg 35%
23:00 +26°C° 0 mm 2 mps 685 mmHg 42%
Show more